FW8113 Weather Reports


time (UTC)temp
C
wind
direction
speed
KPH
gust
KPH
rain 1hr
cm
rain 24hr
cm
rain mn
cm
humidity
%
barometer
mb
20260504100223 6 109 0.0 0.0 0.00 0.00 0.00 78 1010.7
20260504081616 7 108 0.0 0.0 0.00 0.00 0.00 70 1010.3
20260504081112 7 117 0.0 3.2 0.00 0.00 0.00 70 1010.3
20260504080609 7 112 0.0 0.0 0.00 0.00 0.00 69 1010.7
20260504080105 7 110 0.0 0.0 0.00 0.00 0.00 69 1010.7
20260504050421 7 98 0.0 0.0 0.00 0.00 0.00 69 1010.7
20260504045918 8 98 0.0 0.0 0.00 0.00 0.00 67 1011.0
20260504045414 7 98 0.0 0.0 0.00 0.00 0.00 68 1011.0
20260504044910 7 98 0.0 0.0 0.00 0.00 0.00 67 1011.0
20260504044408 7 98 0.0 0.0 0.00 0.00 0.00 67 1011.4
20260504043905 7 97 0.0 0.0 0.00 0.00 0.00 68 1011.7
20260504043402 7 97 0.0 0.0 0.00 0.00 0.00 68 1011.4
20260504042900 7 96 0.0 0.0 0.00 0.00 0.00 68 1011.7
20260504042355 7 95 0.0 0.0 0.00 0.00 0.00 68 1011.7
20260504041852 8 92 0.0 0.0 0.00 0.00 0.00 69 1011.7
20260504041348 8 99 0.0 0.0 0.00 0.00 0.00 68 1011.4
20260504040845 8 95 0.0 0.0 0.00 0.00 0.00 68 1011.7
20260504040342 8 104 0.0 0.0 0.00 0.00 0.00 65 1011.4
20260504035838 8 106 0.0 0.0 0.00 0.00 0.00 65 1011.4
20260504035336 8 106 0.0 0.0 0.00 0.00 0.00 65 1011.7
20260504034832 7 106 0.0 0.0 0.00 0.00 0.00 64 1011.0
20260504034330 7 104 0.0 0.0 0.00 0.00 0.00 65 1011.4
20260504033827 7 103 0.0 0.0 0.00 0.00 0.00 66 1011.4
20260504033325 7 102 0.0 0.0 0.00 0.00 0.00 66 1011.4
20260504032821 7 102 0.0 0.0 0.00 0.00 0.00 67 1011.0
20260504032319 7 102 0.0 0.0 0.00 0.00 0.00 66 1011.0
20260504031815 7 102 0.0 0.0 0.00 0.00 0.00 69 1011.4
20260504031313 7 102 0.0 0.0 0.00 0.00 0.00 69 1011.0
20260504030809 7 102 0.0 0.0 0.00 0.00 0.00 69 1011.0
20260504030306 6 102 0.0 0.0 0.00 0.00 0.00 69 1011.0
20260504025802 6 102 0.0 0.0 0.00 0.00 0.00 69 1011.4
20260504025259 6 102 0.0 0.0 0.00 0.00 0.00 69 1011.0
20260504024755 6 102 0.0 0.0 0.00 0.00 0.00 69 1011.0
20260504024252 6 101 0.0 0.0 0.00 0.00 0.00 68 1010.7
20260504023749 6 101 0.0 0.0 0.00 0.00 0.00 67 1011.0
20260504023245 6 98 0.0 0.0 0.00 0.00 0.00 67 1011.0
20260504022741 6 97 0.0 0.0 0.00 0.00 0.00 66 1010.7
20260504022238 6 97 0.0 0.0 0.00 0.00 0.00 65 1010.7
20260504021735 7 97 0.0 0.0 0.00 0.00 0.00 63 1011.0
20260504021232 7 97 0.0 0.0 0.00 0.00 0.00 63 1011.0
20260504020729 7 97 0.0 0.0 0.00 0.00 0.00 62 1011.0
20260504020226 7 97 0.0 0.0 0.00 0.00 0.00 61 1011.0
20260504015722 7 97 0.0 0.0 0.00 0.00 0.00 61 1011.0
20260504015218 7 97 0.0 0.0 0.00 0.00 0.00 60 1011.0
20260504014714 7 96 0.0 0.0 0.00 0.00 0.00 59 1011.0
20260504014211 8 96 0.0 0.0 0.00 0.00 0.00 59 1011.0
20260504013709 8 96 0.0 0.0 0.00 0.00 0.00 56 1011.0
20260504013206 8 96 0.0 0.0 0.00 0.00 0.00 55 1011.0
20260504012703 8 96 0.0 0.0 0.00 0.00 0.00 54 1011.0
20260504012201 9 96 0.0 0.0 0.00 0.00 0.00 53 1010.7
20260504011657 9 96 0.0 0.0 0.00 0.00 0.00 52 1011.0
20260504011154 10 96 0.0 0.0 0.00 0.00 0.00 51 1010.7
20260504010650 10 96 0.0 0.0 0.00 0.00 0.00 50 1010.7
20260504010145 10 96 0.0 0.0 0.00 0.00 0.00 50 1010.7
20260504005643 10 95 0.0 0.0 0.00 0.00 0.00 49 1010.7
20260504005139 10 124 0.0 0.0 0.00 0.00 0.00 46 1010.7
20260504004638 10 122 0.0 3.2 0.00 0.00 0.00 46 1010.3
20260504004134 10 119 0.0 0.0 0.00 0.00 0.00 45 1010.3
20260504003631 11 67 3.2 4.8 0.00 0.00 0.00 45 1010.7
20260504003127 11 92 0.0 0.0 0.00 0.00 0.00 44 1010.3
20260504002624 11 123 0.0 0.0 0.00 0.00 0.00 44 1010.3
20260504002122 11 120 0.0 0.0 0.00 0.00 0.00 43 1010.3
20260504001619 11 177 1.6 4.8 0.00 0.00 0.00 43 1010.7
20260504001115 11 149 0.0 0.0 0.00 0.00 0.00 42 1010.3
20260504000613 11 161 1.6 3.2 0.00 0.00 0.00 41 1010.0
20260504000110 11 121 3.2 4.8 0.00 0.00 0.00 40 1010.0
20260503235608 11 229 3.2 3.2 0.00 0.00 0.00 41 1010.0
20260503235105 12 195 3.2 4.8 0.00 0.00 0.00 40 1010.0
20260503234603 12 153 4.8 4.8 0.00 0.00 0.00 39 1010.0
20260503234100 12 86 0.0 0.0 0.00 0.00 0.00 40 1010.0
20260503233556 12 33 6.4 11.3 0.00 0.00 0.00 39 1009.7
20260503233052 12 172 1.6 3.2 0.00 0.00 0.00 39 1009.7
20260503232550 12 99 1.6 3.2 0.00 0.00 0.00 37 1010.0
20260503232047 12 209 9.7 14.5 0.00 0.00 0.00 37 1009.7
20260503231545 12 273 8.0 8.0 0.00 0.00 0.00 37 1009.3
20260503231041 12 144 1.6 3.2 0.00 0.00 0.00 35 1009.0
20260503230538 12 37 4.8 4.8 0.00 0.00 0.00 35 1009.3
20260503230036 12 63 6.4 11.3 0.00 0.00 0.00 35 1009.3
20260503225532 12 36 6.4 8.0 0.00 0.00 0.00 34 1009.3
20260503225027 13 84 4.8 4.8 0.00 0.00 0.00 34 1009.3
20260503224525 13 199 8.0 11.3 0.00 0.00 0.00 33 1009.0
20260503224023 13 224 8.0 14.5 0.00 0.00 0.00 32 1009.0
20260503223520 13 179 11.3 14.5 0.00 0.00 0.00 31 1009.0
20260503223016 13 199 4.8 4.8 0.00 0.00 0.00 31 1009.0
20260503222514 13 283 6.4 8.0 0.00 0.00 0.00 31 1009.0
20260503222012 13 198 6.4 11.3 0.00 0.00 0.00 30 1009.0
20260503221510 14 97 14.5 22.5 0.00 0.00 0.00 30 1009.0
20260503221007 13 60 4.8 4.8 0.00 0.00 0.00 30 1009.3
20260503220503 13 155 4.8 4.8 0.00 0.00 0.00 30 1009.0
20260503220000 13 2 9.7 14.5 0.00 0.00 0.00 28 1009.0
20260503215457 14 51 3.2 8.0 0.00 0.00 0.00 29 1009.0
20260503214954 14 201 4.8 8.0 0.00 0.00 0.00 29 1009.0
20260503214452 14 166 8.0 11.3 0.00 0.00 0.00 28 1009.0
20260503213949 14 260 4.8 4.8 0.00 0.00 0.00 30 1009.3
20260503213447 14 165 6.4 16.1 0.00 0.00 0.00 28 1009.0
20260503212943 14 183 11.3 14.5 0.00 0.00 0.00 28 1009.0
20260503212441 14 202 6.4 11.3 0.00 0.00 0.00 29 1009.3
20260503211938 13 91 3.2 4.8 0.00 0.00 0.00 30 1009.3
20260503211435 13 159 3.2 4.8 0.00 0.00 0.00 30 1009.3
20260503210930 13 257 9.7 14.5 0.00 0.00 0.00 31 1009.0
20260503210427 14 19 16.1 22.5 0.00 0.00 0.00 29 1009.3
20260503205922 13 187 3.2 4.8 0.00 0.00 0.00 31 1009.0
20260503205420 13 216 3.2 4.8 0.00 0.00 0.00 31 1009.0
20260503204916 13 165 4.8 8.0 0.00 0.00 0.00 30 1009.0
20260503204413 13 276 8.0 11.3 0.00 0.00 0.00 30 1009.3
20260503203910 13 125 0.0 3.2 0.00 0.00 0.00 34 1009.3
20260503203408 13 62 9.7 14.5 0.00 0.00 0.00 33 1009.3
20260503202904 13 179 9.7 16.1 0.00 0.00 0.00 31 1009.3
20260503202403 13 191 4.8 4.8 0.00 0.00 0.00 37 1009.7
20260503201901 13 176 4.8 4.8 0.00 0.00 0.00 35 1009.7
20260503201357 12 87 8.0 11.3 0.00 0.00 0.00 36 1009.7
20260503200855 12 95 3.2 4.8 0.00 0.00 0.00 37 1009.7
20260503200350 12 130 0.0 0.0 0.00 0.00 0.00 37 1009.7
20260503195848 12 225 11.3 19.3 0.00 0.00 0.00 37 1009.7
20260503195344 12 220 16.1 19.3 0.00 0.00 0.00 36 1009.7
20260503194842 12 195 9.7 11.3 0.00 0.00 0.00 38 1009.7
20260503194337 12 150 6.4 8.0 0.00 0.00 0.00 38 1010.0
20260503193834 12 149 6.4 11.3 0.00 0.00 0.00 38 1010.0
20260503193330 12 93 3.2 8.0 0.00 0.00 0.00 38 1010.0
20260503192826 13 298 4.8 8.0 0.00 0.00 0.00 38 1010.0
20260503192321 12 34 6.4 11.3 0.00 0.00 0.00 39 1010.0
20260503191818 12 350 4.8 8.0 0.00 0.00 0.00 42 1010.0
20260503191315 12 14 4.8 8.0 0.00 0.00 0.00 38 1010.7
20260503190812 12 220 8.0 11.3 0.00 0.00 0.00 37 1010.3
20260503190309 12 219 4.8 8.0 0.00 0.00 0.00 37 1010.3
20260503185806 12 193 4.8 8.0 0.00 0.00 0.00 39 1010.3
20260503185304 12 13 8.0 11.3 0.00 0.00 0.00 37 1010.3
20260503184801 12 100 4.8 4.8 0.00 0.00 0.00 40 1010.7
20260503184258 12 142 0.0 0.0 0.00 0.00 0.00 39 1010.7
20260503183754 12 4 8.0 8.0 0.00 0.00 0.00 39 1010.7
20260503183252 11 30 12.9 16.1 0.00 0.00 0.00 41 1010.7
20260503182749 11 82 3.2 3.2 0.00 0.00 0.00 44 1010.7
20260503182248 11 203 11.3 19.3 0.00 0.00 0.00 42 1010.7
20260503181744 11 46 8.0 14.5 0.00 0.00 0.00 41 1010.7
20260503181241 11 27 6.4 8.0 0.00 0.00 0.00 43 1010.7
20260503180738 10 261 12.9 22.5 0.00 0.00 0.00 43 1010.7
20260503180236 10 53 4.8 8.0 0.00 0.00 0.00 44 1010.7
20260503175732 10 187 4.8 4.8 0.00 0.00 0.00 45 1011.0
20260503175230 10 207 4.8 14.5 0.00 0.00 0.00 46 1011.0
20260503174726 10 162 1.6 3.2 0.00 0.00 0.00 47 1010.7
20260503174225 9 304 4.8 8.0 0.00 0.00 0.00 47 1011.0
20260503173725 9 252 4.8 4.8 0.00 0.00 0.00 46 1011.0
20260503173221 10 75 12.9 19.3 0.00 0.00 0.00 45 1011.0
20260503172718 10 192 6.4 8.0 0.00 0.00 0.00 47 1011.0
20260503172215 10 222 4.8 8.0 0.00 0.00 0.00 45 1011.0
20260503171711 10 220 3.2 3.2 0.00 0.00 0.00 47 1011.0
20260503171209 10 177 20.9 24.1 0.00 0.00 0.00 43 1011.0
20260503170705 10 136 3.2 4.8 0.00 0.00 0.00 46 1010.7
20260503170203 9 195 3.2 4.8 0.00 0.00 0.00 48 1011.0
20260503160124 10 292 12.9 16.1 0.00 0.00 0.00 45 1011.0
20260503150554 10 265 4.8 11.3 0.00 0.00 0.00 48 1011.4
20260503130944 7 341 3.2 4.8 0.00 0.00 0.00 65 1011.7
20260503130442 7 210 6.4 8.0 0.00 0.00 0.00 66 1011.7
20260503110326 5 92 0.0 0.0 0.00 0.00 0.00 74 1011.4